User: anonymous   Login
Location: Frydek-Mistek
(49.6830°N, 18.3330°E)
Time: 10:54:46
(UTC+01:00)
Language:

Courier 1B Rocket - Orbit

View from above orbital plane
View from above orbital plane
View from above satellite
View from above satellite

Ground track
Ground track

The orbit data is extracted from the following two-line orbital elements,

1 00059U 60013B   17058.82758618  .00000115  00000-0  30699-4 0  9998
2 00059  28.2495 291.1056 0189333 247.2411 110.8025 13.52948307783713
Epoch (UTC): 27 February 2017 19:51:43
Eccentricity: 0.0189333
inclination: 28.2495°
perigee height: 920 km
apogee height: 1202 km
right ascension of ascending node: 291.1056°
argument of perigee: 247.2411°
revolutions per day: 13.52948307
mean anomaly at epoch: 110.8025°
orbit number at epoch: 78371

The dashed part of the orbit path shows where the satellite is in the earth's shadow,  

DLR